Content
SEND FEEDBACK

Daily
Averages
Monthly
Summary
United States of America

CHERAW, COLORADO


Home > North America > United States > Colorado
Elevation: 4200 feet     Latitude: 38 03N     Longitude: 103 31W

WEATHER
 
SELECT A DAY
Number of Records: 190,402;   Date Range: 1/1/95 - 12/26/14
 
SHARE

PRINT THIS DATA

[ ← Previous Day ]
WEATHER ALMANAC - FEBRUARY 13, 2013
[ Next Day → ]
[ °C ]   °F
Weather ElementAverageHighLow
Temperature34.6 °F53.1 °F (3:53 pm)12.9 °F (6:53 am)
Dewpoint9.6 °F12.9 °F (9:53 am)5 °F (9:53 pm)
Humidity39.8 %74 % (6:53 am)19 % (2:53 pm)
Barometer30.00 in30.09 in (6:53 am)29.90 in (2:53 pm)
Wind Speed7.2 mph12.7 mph (1:53 am)
Weather ElementAverage
Visibility10 mi
Wind DirectionS (182.2 °)

Weather ElementTotal
Precipitation---
Heating Degree Days32 (Base 65)
Averaged from 23 records on February 13, 2013
WEATHER CONDITIONS BREAKOUT
WIND DIRECTION BREAKOUT
WEATHER BY HOUR - FEBRUARY 13, 2013
[ °C ]   °F
Local TimeTemperatureDewpointHumidityBarometerVisibilityWind DirectionWind SpeedGust SpeedPrecipitationEventsConditions
1:53 AM19.9 °F7.0 °F57 %30.06 in10.0 miWest (270°)12.7 mphClear
2:53 AM18.0 °F7.0 °F62 %30.06 in10.0 miWest (280°)11.5 mphClear
3:53 AM17.1 °F7.0 °F65 %30.05 in10.0 miWest (260°)10.4 mphClear
4:53 AM17.1 °F8.1 °F68 %30.04 in10.0 miWSW (250°)12.7 mphClear
5:53 AM16.0 °F7.0 °F68 %30.07 in10.0 miWest (280°)5.8 mphClear
6:53 AM12.9 °F6.1 °F74 %30.09 in10.0 miWest (280°)10.4 mphClear
7:53 AM21.0 °F9.0 °F60 %30.07 in10.0 miWest (280°)9.2 mphClear
8:53 AM27.0 °F10.0 °F49 %30.06 in10.0 miWest (270°)6.9 mphClear
9:53 AM35.1 °F12.9 °F40 %30.03 in10.0 miWSW (250°)10.4 mphClear
10:53 AM43.0 °F12.0 °F28 %29.99 in10.0 miWest (260°)8.1 mphClear
11:53 AM48.0 °F12.9 °F24 %29.96 in10.0 miSW (230°)6.9 mphClear
12:53 PM50.0 °F12.0 °F22 %29.91 in10.0 miCalmClear
1:53 PM51.1 °F12.0 °F21 %29.91 in10.0 miSouth (190°)4.6 mphClear
2:53 PM52.0 °F10.9 °F19 %29.90 in10.0 miSSE (160°)8.1 mphClear
3:53 PM53.1 °F10.9 °F19 %29.91 in10.0 miSSW (210°)5.8 mphClear
4:53 PM52.0 °F12.0 °F20 %29.91 in10.0 miCalmClear
5:53 PM48.0 °F12.9 °F24 %29.94 in10.0 miSSE (160°)3.5 mphClear
6:53 PM44.1 °F12.9 °F28 %29.98 in10.0 miENE (70°)3.5 mphClear
7:53 PM39.0 °F10.9 °F32 %30.00 in10.0 miNorth (360°)6.9 mphClear
8:53 PM35.1 °F7.0 °F31 %30.01 in10.0 miNNE (20°)8.1 mphClear
9:53 PM33.1 °F5.0 °F31 %30.01 in10.0 miNorth (10°)6.9 mphClear
10:53 PM35.1 °F8.1 °F33 %30.00 in10.0 miNNE (20°)8.1 mphClear
11:53 PM28.9 °F7.0 °F40 %30.02 in10.0 miEast (80°)4.6 mphClear
Hourly data recorded from KLHX, located miles away from Cheraw, Colorado







STORIES FROM OUR PARTNERS